Time,TemperatureF,DewpointF,PressureIn,WindDirection,WindDirectionDegrees,WindSpeedMPH,WindSpeedGustMPH,Humidity,HourlyPrecipIn,Conditions,Clouds,dailyrainin,SoftwareType,DateUTC
2013-03-12 00:06:00,46.5,45.0,30.12,ESE,117,0.0,0.0,94,0.00,,,0.00,weatherlink.com 1.10,2013-03-12 07:06:00,
2013-03-12 00:21:00,45.7,44.0,30.12,ESE,117,0.0,0.0,94,0.00,,,0.00,weatherlink.com 1.10,2013-03-12 07:21:00,
2013-03-12 00:36:00,45.6,44.0,30.12,ESE,117,0.0,0.0,95,0.00,,,0.00,weatherlink.com 1.10,2013-03-12 07:36:00,
2013-03-12 01:06:00,45.0,44.0,30.12,SSW,197,0.0,0.0,95,0.00,,,0.00,weatherlink.com 1.10,2013-03-12 08:06:00,
2013-03-12 01:21:00,45.0,44.0,30.12,SW,225,0.0,0.0,96,0.00,,,0.00,weatherlink.com 1.10,2013-03-12 08:21:00,
2013-03-12 01:36:00,45.1,44.0,30.13,South,170,0.0,0.0,95,0.00,,,0.00,weatherlink.com 1.10,2013-03-12 08:36:00,
2013-03-12 01:51:00,45.2,44.0,30.12,SE,132,0.0,0.0,96,0.00,,,0.00,weatherlink.com 1.10,2013-03-12 08:51:00,
2013-03-12 02:06:00,44.6,44.0,30.12,SE,133,0.0,0.0,96,0.00,,,0.00,weatherlink.com 1.10,2013-03-12 09:06:00,
2013-03-12 02:21:00,43.7,43.0,30.12,SE,132,0.0,0.0,96,0.00,,,0.00,weatherlink.com 1.10,2013-03-12 09:21:00,
2013-03-12 02:36:00,43.6,43.0,30.12,SE,132,0.0,0.0,96,0.00,,,0.00,weatherlink.com 1.10,2013-03-12 09:36:00,
2013-03-12 02:51:00,43.5,43.0,30.12,SE,132,0.0,0.0,97,0.00,,,0.00,weatherlink.com 1.10,2013-03-12 09:51:00,
2013-03-12 03:06:00,43.3,43.0,30.12,SE,132,0.0,0.0,97,0.00,,,0.00,weatherlink.com 1.10,2013-03-12 10:06:00,
2013-03-12 03:21:00,44.0,43.0,30.12,SE,132,0.0,0.0,97,0.00,,,0.00,weatherlink.com 1.10,2013-03-12 10:21:00,
2013-03-12 03:37:00,43.5,43.0,30.12,SE,133,0.0,0.0,97,0.00,,,0.00,weatherlink.com 1.10,2013-03-12 10:37:00,
2013-03-12 03:52:00,43.5,43.0,30.11,SE,132,0.0,0.0,97,0.00,,,0.00,weatherlink.com 1.10,2013-03-12 10:52:00,
2013-03-12 04:07:00,42.7,42.0,30.11,SE,133,0.0,0.0,97,0.00,,,0.00,weatherlink.com 1.10,2013-03-12 11:07:00,
2013-03-12 04:22:00,42.7,42.0,30.11,SE,133,0.0,0.0,97,0.00,,,0.00,weatherlink.com 1.10,2013-03-12 11:22:00,
2013-03-12 04:37:00,42.5,42.0,30.11,SSW,212,0.0,0.0,98,0.00,,,0.00,weatherlink.com 1.10,2013-03-12 11:37:00,
2013-03-12 04:52:00,42.4,42.0,30.11,SSW,201,0.0,0.0,98,0.00,,,0.00,weatherlink.com 1.10,2013-03-12 11:52:00,
2013-03-12 05:07:00,43.1,43.0,30.11,SSE,153,0.0,0.0,98,0.00,,,0.00,weatherlink.com 1.10,2013-03-12 12:07:00,
2013-03-12 05:22:00,43.0,43.0,30.12,SSW,195,0.0,0.0,98,0.00,,,0.00,weatherlink.com 1.10,2013-03-12 12:22:00,
2013-03-12 05:37:00,43.2,43.0,30.12,South,191,0.0,0.0,98,0.00,,,0.00,weatherlink.com 1.10,2013-03-12 12:37:00,
2013-03-12 05:52:00,42.9,42.0,30.12,South,191,0.0,0.0,98,0.00,,,0.00,weatherlink.com 1.10,2013-03-12 12:52:00,
2013-03-12 06:07:00,42.6,42.0,30.12,NNE,27,0.0,0.0,98,0.00,,,0.00,weatherlink.com 1.10,2013-03-12 13:07:00,
2013-03-12 06:22:00,42.2,42.0,30.12,NNE,27,0.0,0.0,98,0.00,,,0.00,weatherlink.com 1.10,2013-03-12 13:22:00,
2013-03-12 06:37:00,41.5,41.0,30.11,SSW,197,0.0,0.0,98,0.00,,,0.00,weatherlink.com 1.10,2013-03-12 13:37:00,
2013-03-12 06:52:00,41.4,41.0,30.12,SSW,196,0.0,0.0,98,0.00,,,0.00,weatherlink.com 1.10,2013-03-12 13:52:00,
2013-03-12 07:07:00,41.4,41.0,30.12,SE,129,0.0,0.0,98,0.00,,,0.00,weatherlink.com 1.10,2013-03-12 14:07:00,
2013-03-12 07:22:00,41.4,41.0,30.13,ESE,117,0.0,0.0,98,0.00,,,0.00,weatherlink.com 1.10,2013-03-12 14:22:00,
2013-03-12 07:37:00,41.5,41.0,30.13,ESE,117,0.0,0.0,99,0.00,,,0.00,weatherlink.com 1.10,2013-03-12 14:37:00,
2013-03-12 07:52:00,41.3,41.0,30.13,ESE,117,0.0,0.0,99,0.00,,,0.00,weatherlink.com 1.10,2013-03-12 14:52:00,
2013-03-12 08:07:00,41.5,41.0,30.14,ESE,117,0.0,0.0,99,0.00,,,0.00,weatherlink.com 1.10,2013-03-12 15:07:00,
2013-03-12 08:22:00,42.5,42.0,30.14,ESE,120,0.0,0.0,99,0.00,,,0.00,weatherlink.com 1.10,2013-03-12 15:22:00,
2013-03-12 08:37:00,44.5,44.0,30.14,ESE,119,0.0,0.0,99,0.00,,,0.00,weatherlink.com 1.10,2013-03-12 15:37:00,
2013-03-12 08:52:00,45.8,46.0,30.15,ENE,68,0.0,0.0,99,0.00,,,0.00,weatherlink.com 1.10,2013-03-12 15:52:00,
2013-03-12 09:07:00,47.1,47.0,30.16,North,358,0.0,0.0,99,0.00,,,0.00,weatherlink.com 1.10,2013-03-12 16:07:00,
2013-03-12 09:22:00,49.5,49.0,30.16,NNW,345,0.0,0.0,99,0.00,,,0.00,weatherlink.com 1.10,2013-03-12 16:22:00,
2013-03-12 09:37:00,51.6,50.0,30.16,WNW,300,0.0,0.0,95,0.00,,,0.00,weatherlink.com 1.10,2013-03-12 16:37:00,
2013-03-12 09:52:00,53.1,49.0,30.16,WNW,283,0.0,0.0,87,0.00,,,0.00,weatherlink.com 1.10,2013-03-12 16:52:00,
2013-03-12 10:07:00,54.7,49.0,30.15,West,281,0.0,0.0,80,0.00,,,0.00,weatherlink.com 1.10,2013-03-12 17:07:00,
2013-03-12 10:37:00,56.5,50.0,30.15,SW,217,1.0,4.0,79,0.00,,,0.00,weatherlink.com 1.10,2013-03-12 17:37:00,
2013-03-12 10:52:00,56.6,51.0,30.15,SSW,211,2.0,3.0,80,0.00,,,0.00,weatherlink.com 1.10,2013-03-12 17:52:00,
2013-03-12 11:07:00,57.2,51.0,30.15,West,281,0.0,3.0,81,0.00,,,0.00,weatherlink.com 1.10,2013-03-12 18:07:00,
2013-03-12 11:22:00,58.3,51.0,30.15,SSW,205,1.0,3.0,77,0.00,,,0.00,weatherlink.com 1.10,2013-03-12 18:22:00,
2013-03-12 11:37:00,60.0,53.0,30.14,SW,233,3.0,4.0,78,0.00,,,0.00,weatherlink.com 1.10,2013-03-12 18:37:00,
2013-03-12 11:53:00,60.4,53.0,30.14,South,180,2.0,4.0,77,0.00,,,0.00,weatherlink.com 1.10,2013-03-12 18:53:00,
2013-03-12 12:08:00,61.8,53.0,30.15,WSW,257,4.0,5.0,74,0.00,,,0.00,weatherlink.com 1.10,2013-03-12 19:08:00,
2013-03-12 12:23:00,62.9,54.0,30.14,WSW,238,2.0,6.0,72,0.00,,,0.00,weatherlink.com 1.10,2013-03-12 19:23:00,
2013-03-12 12:38:00,64.4,53.0,30.14,SW,214,5.0,9.0,67,0.00,,,0.00,weatherlink.com 1.10,2013-03-12 19:38:00,
2013-03-12 12:53:00,66.1,53.0,30.13,SW,218,4.0,6.0,63,0.00,,,0.00,weatherlink.com 1.10,2013-03-12 19:53:00,
2013-03-12 13:08:00,67.3,54.0,30.13,SSW,198,6.0,6.0,62,0.00,,,0.00,weatherlink.com 1.10,2013-03-12 20:08:00,
2013-03-12 13:23:00,68.6,54.0,30.12,South,173,3.0,6.0,59,0.00,,,0.00,weatherlink.com 1.10,2013-03-12 20:23:00,
2013-03-12 13:38:00,69.6,54.0,30.11,SW,219,6.0,8.0,58,0.00,,,0.00,weatherlink.com 1.10,2013-03-12 20:38:00,
2013-03-12 13:53:00,70.4,53.0,30.10,SSW,201,1.0,8.0,55,0.00,,,0.00,weatherlink.com 1.10,2013-03-12 20:53:00,
2013-03-12 14:08:00,71.0,54.0,30.10,West,273,2.0,7.0,55,0.00,,,0.00,weatherlink.com 1.10,2013-03-12 21:08:00,
2013-03-12 14:23:00,72.0,55.0,30.09,SW,231,6.0,9.0,55,0.00,,,0.00,weatherlink.com 1.10,2013-03-12 21:23:00,
2013-03-12 14:38:00,72.8,56.0,30.08,SSE,155,4.0,9.0,56,0.00,,,0.00,weatherlink.com 1.10,2013-03-12 21:38:00,
2013-03-12 14:53:00,73.0,56.0,30.08,SW,219,8.0,12.0,56,0.00,,,0.00,weatherlink.com 1.10,2013-03-12 21:53:00,
2013-03-12 15:08:00,73.3,58.0,30.08,SW,214,6.0,9.0,60,0.00,,,0.00,weatherlink.com 1.10,2013-03-12 22:08:00,
2013-03-12 15:23:00,73.2,59.0,30.08,SSW,208,7.0,9.0,62,0.00,,,0.00,weatherlink.com 1.10,2013-03-12 22:23:00,
2013-03-12 15:38:00,72.7,58.0,30.08,WSW,252,5.0,11.0,61,0.00,,,0.00,weatherlink.com 1.10,2013-03-12 22:38:00,
2013-03-12 15:53:00,71.8,58.0,30.08,SW,224,6.0,10.0,63,0.00,,,0.00,weatherlink.com 1.10,2013-03-12 22:53:00,
2013-03-12 16:08:00,70.7,56.0,30.08,South,179,6.0,11.0,61,0.00,,,0.00,weatherlink.com 1.10,2013-03-12 23:08:00,
2013-03-12 16:23:00,70.3,57.0,30.08,South,186,5.0,9.0,63,0.00,,,0.00,weatherlink.com 1.10,2013-03-12 23:23:00,
2013-03-12 16:38:00,69.4,57.0,30.08,SSW,200,6.0,10.0,64,0.00,,,0.00,weatherlink.com 1.10,2013-03-12 23:38:00,
2013-03-12 16:53:00,68.8,55.0,30.08,SSW,212,9.0,11.0,62,0.00,,,0.00,weatherlink.com 1.10,2013-03-12 23:53:00,
2013-03-12 17:08:00,68.7,55.0,30.08,South,183,3.0,11.0,62,0.00,,,0.00,weatherlink.com 1.10,2013-03-13 00:08:00,
2013-03-12 17:23:00,69.0,54.0,30.07,SW,218,6.0,9.0,60,0.00,,,0.00,weatherlink.com 1.10,2013-03-13 00:23:00,
2013-03-12 17:38:00,69.4,54.0,30.08,SSW,204,5.0,8.0,58,0.00,,,0.00,weatherlink.com 1.10,2013-03-13 00:38:00,
2013-03-12 17:53:00,69.6,54.0,30.07,SW,217,6.0,8.0,57,0.00,,,0.00,weatherlink.com 1.10,2013-03-13 00:53:00,
2013-03-12 18:08:00,69.8,53.0,30.07,South,174,5.0,7.0,55,0.00,,,0.00,weatherlink.com 1.10,2013-03-13 01:08:00,
2013-03-12 18:23:00,68.4,53.0,30.07,SSW,212,4.0,10.0,58,0.00,,,0.00,weatherlink.com 1.10,2013-03-13 01:23:00,
2013-03-12 18:38:00,67.6,54.0,30.07,SW,214,5.0,8.0,62,0.00,,,0.00,weatherlink.com 1.10,2013-03-13 01:38:00,
2013-03-12 18:53:00,64.5,54.0,30.07,SSW,201,5.0,9.0,69,0.00,,,0.00,weatherlink.com 1.10,2013-03-13 01:53:00,
2013-03-12 19:09:00,60.3,52.0,30.08,SSE,148,7.0,10.0,74,0.00,,,0.00,weatherlink.com 1.10,2013-03-13 02:09:00,
2013-03-12 19:24:00,57.4,50.0,30.09,SSW,201,4.0,9.0,76,0.00,,,0.00,weatherlink.com 1.10,2013-03-13 02:24:00,
2013-03-12 19:39:00,55.5,50.0,30.09,SSW,193,4.0,7.0,81,0.00,,,0.00,weatherlink.com 1.10,2013-03-13 02:39:00,
2013-03-12 19:54:00,54.5,50.0,30.09,SW,229,1.0,4.0,84,0.00,,,0.00,weatherlink.com 1.10,2013-03-13 02:54:00,
2013-03-12 20:08:00,53.9,50.0,30.10,ESE,122,1.0,6.0,85,0.00,,,0.00,weatherlink.com 1.10,2013-03-13 03:08:00,
2013-03-12 20:24:00,52.7,49.0,30.10,SW,233,6.0,9.0,86,0.00,,,0.00,weatherlink.com 1.10,2013-03-13 03:24:00,
2013-03-12 20:39:00,51.5,48.0,30.11,SW,219,5.0,12.0,88,0.00,,,0.00,weatherlink.com 1.10,2013-03-13 03:39:00,
2013-03-12 20:54:00,50.5,47.0,30.11,SW,215,2.0,7.0,89,0.00,,,0.00,weatherlink.com 1.10,2013-03-13 03:54:00,
2013-03-12 21:09:00,49.7,47.0,30.11,South,173,0.0,4.0,90,0.00,,,0.00,weatherlink.com 1.10,2013-03-13 04:09:00,
2013-03-12 21:24:00,48.6,46.0,30.11,SSW,195,0.0,1.0,91,0.00,,,0.00,weatherlink.com 1.10,2013-03-13 04:24:00,
2013-03-12 21:39:00,47.8,46.0,30.11,SW,217,0.0,0.0,92,0.00,,,0.00,weatherlink.com 1.10,2013-03-13 04:39:00,
2013-03-12 21:54:00,47.2,45.0,30.11,SW,218,0.0,0.0,93,0.00,,,0.00,weatherlink.com 1.10,2013-03-13 04:54:00,
2013-03-12 22:09:00,46.8,45.0,30.12,SSW,201,0.0,0.0,94,0.00,,,0.00,weatherlink.com 1.10,2013-03-13 05:09:00,
2013-03-12 22:24:00,46.5,45.0,30.12,SSW,200,0.0,0.0,94,0.00,,,0.00,weatherlink.com 1.10,2013-03-13 05:24:00,
2013-03-12 22:39:00,46.5,45.0,30.12,SSW,208,0.0,0.0,95,0.00,,,0.00,weatherlink.com 1.10,2013-03-13 05:39:00,
2013-03-12 22:54:00,46.5,45.0,30.13,SSW,208,0.0,0.0,95,0.00,,,0.00,weatherlink.com 1.10,2013-03-13 05:54:00,
2013-03-12 23:09:00,46.0,45.0,30.13,SSW,209,0.0,0.0,95,0.00,,,0.00,weatherlink.com 1.10,2013-03-13 06:09:00,
2013-03-12 23:24:00,46.3,45.0,30.13,SW,214,0.0,0.0,96,0.00,,,0.00,weatherlink.com 1.10,2013-03-13 06:24:00,
2013-03-12 23:39:00,46.3,45.0,30.13,SSW,212,0.0,0.0,96,0.00,,,0.00,weatherlink.com 1.10,2013-03-13 06:39:00,
2013-03-12 23:54:00,46.3,45.0,30.13,SE,130,0.0,0.0,96,0.00,,,0.00,weatherlink.com 1.10,2013-03-13 06:54:00,